Regional Weather Roundup
Issued by NWS

Home | Current Version | Previous Version | Text Only | Print | Product List | Glossary Off
Versions: 1 2 3 4 5 6 7 8 9 10 11 12 13 14 15 16 17 18 19 20 21 22 23 24 25 26 27 28 29 30 31 32 33 34 35 36 37 38 39 40 41 42 43 44 45 46 47 48 49 50

897
ASUS43 KDTX 240801
RWRMI
MICHIGAN HOURLY REGIONAL WEATHER ROUNDUP
NATIONAL WEATHER SERVICE DETROIT/PONTIAC MI
400 AM EDT SUN SEP 24 2017

NOTE: "FAIR" INDICATES FEW OR NO CLOUDS BELOW 12,000 FEET WITH NO
SIGNIFICANT WEATHER AND/OR OBSTRUCTION TO VISIBILITY.

MIZ047>049-052>055-059>063-066>070-074>076-081>083-240900-
SOUTHEAST LOWER MICHIGAN

CITY           SKY/WX    TMP DP  RH WIND       PRES   REMARKS
ADRIAN         CLEAR     61  58  90 N3        30.15R
ALMA           CLEAR     60  58  91 S3        30.14S
ANN ARBOR      CLEAR     59  59 100 CALM      30.14S
BAD AXE        CLEAR     63  61  92 CALM      30.15R
CARO           CLEAR     61  59  94 CALM      30.13S FOG
DETROIT CITY   CLEAR     69  63  81 CALM      30.14S
DETROIT        CLEAR     69  63  81 CALM      30.15R
FLINT          CLEAR     62  60  93 CALM      30.14S
GROSSE ILE     CLEAR     66  64  93 CALM      30.13S
HILLSDALE      CLEAR     68  54  60 SE5       30.15R
HOWELL         CLEAR     63  61  92 CALM      30.15S

CITY           SKY/WX    TMP DP  RH WIND       PRES   REMARKS
JACKSON        CLEAR     63  59  87 CALM      30.15R
LAMBERTVILLE   CLEAR     64  62  91 CALM      30.13S FOG
LANSING        CLEAR     66  58  75 CALM      30.14S
LAPEER         FAIR      61  60  97 CALM      30.15S FOG
MASON          CLEAR     64  61  90 CALM      30.14S
MONROE         CLEAR     63  61  93 N3        30.13R FOG
PONTIAC        CLEAR     67  64  90 CALM      30.15R
PORT HOPE        N/A     73  64  73 SW6       30.11R
PORT HURON     FOG       61  59  94 CALM      30.14S VSB 1/2
TRI CITIES     CLEAR     70  63  78 SW7       30.13S
MIDLAND        FAIR      64  61  90 CALM      30.12S
TROY           CLEAR     69  59  71 CALM      30.16S
SAGINAW HB     CLEAR     68  61  77 CALM      30.12S
$$
MIZ043>046-050>051-056>058-064>065-071>073-077>080-240900-
SOUTHWEST LOWER MICHIGAN

CITY           SKY/WX    TMP DP  RH WIND       PRES   REMARKS
BATTLE CREEK   CLEAR     65  62  90 SE3       30.14S
BENTON HARBOR  CLEAR     66  62  87 E6        30.10R
BIG RAPIDS     CLEAR     63  61  94 CALM      30.13S FOG
COLDWATER      CLEAR     67  57  72 SE5       30.14S
FREMONT        FAIR      67  65  94 CALM      30.11S
HOLLAND        CLEAR     65  61  87 CALM      30.11S
GRAND RAPIDS   CLEAR     67  61  81 E6        30.12S
IONIA          FAIR      63  59  86 E3        30.13R
KALAMAZOO      CLEAR     66  60  81 CALM      30.13S
LUDINGTON      CLEAR     62  62  98 CALM      30.09S
MARSHALL       CLEAR     61  60  98 CALM      30.14R
MUSKEGON       CLEAR     67  64  90 SE3       30.10S
SOUTH HAVEN    CLEAR     70  64  81 SE3       30.10S
$$
MIZ016>042-240900-
NORTHERN LOWER MICHIGAN

CITY           SKY/WX    TMP DP  RH WIND       PRES   REMARKS
ALPENA         PTCLDY    65  65 100 CALM      30.12R
BELLAIRE       FOG       61  60  96 CALM      30.10S VSB 1/2
CADILLAC       CLEAR     62  58  87 CALM      30.14S
CHARLEVOIX     CLEAR     68  68 100 E5        30.12S
FRANKFORT      CLEAR     64  64  99 CALM      30.09S
GAYLORD        CLEAR     66  62  87 CALM      30.14R
GRAYLING       CLEAR     60  57  89 CALM      30.15R FOG
HARBOR SPRINGS CLEAR     66  65  94 CALM      30.09S
HOUGHTON LAKE  CLEAR     73  60  63 SW3       30.15R
MANISTEE       CLEAR     65  64  97 E5        30.09S
OSCODA         CLEAR     70  63  80 W7        30.12R
PELLSTON       CLEAR     59  59 100 CALM      30.10S FOG
ROGERS CITY    PTCLDY    70  66  87 S5        30.11S
TRAVERSE CITY  CLEAR     67  64  90 CALM      30.09R
$$
MIZ007>008-015-240900-
EASTERN UPPER MICHIGAN

CITY           SKY/WX    TMP DP  RH WIND       PRES   REMARKS
KINROSS        CLEAR     68  65  90 SW5       30.09S
MACKINAC ISLAN CLEAR     67  66  96 S7        30.09S
NEWBERRY       PTCLDY    67  66  97 SW6       30.08S
S. S. MARIE    CLEAR     65  63  93 CALM      30.08S
MUNISING         N/A     72  67  84 S6        30.04S
$$
MIZ004>006-011>014-085-240900-
CENTRAL UPPER MICHIGAN

CITY           SKY/WX    TMP DP  RH WIND       PRES   REMARKS
MANISTIQUE     PTCLDY    61  55  81 CALM      30.06S HAZE
ESCANABA       FOG       62  62 100 CALM      30.05S VSB 1/4
MENOMINEE      CLEAR     71  66  84 SW3       30.06S
SAWYER-GWINN   PTCLDY    67  65  93 S5        30.07R
$$
MIZ001>003-009>011-084-240900-
WESTERN UPPER MICHIGAN

CITY           SKY/WX    TMP DP  RH WIND       PRES   REMARKS
IRON MOUNTAIN  PTCLDY    71  64  78 SE3       30.05S
HOUGHTON       LGT RAIN  69  65  86 CALM      30.00F
COPPER HARBOR    N/A     71  67  87 SW8       29.98F
IRONWOOD       MOCLDY    73  65  75 S9        30.00F
$$

ABBREVIATIONS USED IN REMARKS
   TC - TEMPERATURE IN CELSIUS
  WCI - WIND CHILL INDEX
   HX - HEAT INDEX
  VSB - VISIBILITY





USA.gov is the U.S. government's official web portal to all federal, state and local government web resources and services.